Regional Weather Roundup
Issued by NWS Charleston, SC

Current Version | Previous Version | Graphics & Text | Print | Product List | Glossary On
Versions: 1 2 3 4 5 6 7 8 9 10 11 12 13 14 15 16 17 18 19 20 21 22 23 24 25 26 27 28 29 30 31 32 33 34 35 36 37 38 39 40 41 42 43 44 45 46 47 48 49 50
000 ASUS42 KCHS 250210 RWRCHS REGIONAL WEATHER ROUNDUP NATIONAL WEATHER SERVICE CHARLESTON SC 1000 PM EDT FRI OCT 24 2014 NOTE: "FAIR" INDICATES FEW OR NO CLOUDS BELOW 12,000 FEET WITH NO SIGNIFICANT WEATHER AND/OR OBSTRUCTIONS TO VISIBILITY. NOT ALL STATIONS ARE QUALITY CONTROLLED BY THE NATIONAL WEATHER SERVICE. USE DATA WITH CAUTION...ESPECIALLY DEWPOINT OBSERVATIONS. SCZ027-030-031-034>040-042>050-250300- ...SOUTH CAROLINA... CITY SKY/WX TMP DP RH WIND PRES REMARKS N CHARLESTON CLOUDY 60 52 74 CALM 30.00R WATERFRONT PRK NOT AVBL FORT JOHNSON NOT AVBL JOHNS ISLAND CLEAR 57 54 88 CALM 30.00S PINOPOLIS NOT AVBL MONCKS CORNER FAIR 57 57 100 CALM 30.00R SUMMERVILLE FAIR 57 55 94 CALM 30.01R BEAUFORT MCAS MOCLDY 57 51 80 W3 30.00R BEAUFORT ARPT FAIR 55 54 94 CALM 29.99S HILTON HEAD IS NOT AVBL GEORGETOWN NOT AVBL WALTERBORO CLOUDY 59 55 88 CALM 30.01R ORANGEBURG MOCLDY 57 51 80 CALM 30.01R BARNWELL FAIR 57 48 72 NW3 30.03R AIKEN FAIR 52 46 82 CALM 30.05R MANNING FAIR 59 N/A N/A CALM 30.01R KINGSTREE NOT AVBL COLUMBIA PTCLDY 54 49 83 CALM 30.01S SUMTER MOCLDY 58 48 69 W5 30.00R FLORENCE CLOUDY 57 51 80 CALM 30.00R MYRTLE BEACH CLEAR 57 52 82 CALM 29.99S N MYRTLE BEACH MOCLDY 54 52 93 CALM 29.99R $$ GAZ063-065-086>088-099>101-113>116-118-119-134-136>141-150-250300- ...GEORGIA... CITY SKY/WX TMP DP RH WIND PRES REMARKS SAVANNAH ARPT PTCLDY 59 51 75 CALM 30.01R HUNTER AAF PTCLDY 55 51 89 CALM 29.99R FORT STEWART CLEAR 53 49 87 CALM 30.00R STATESBORO NOT AVBL SYLVANIA CLEAR 58 55 92 CALM 30.02R CLAXTON FAIR 52 52 100 CALM 30.02R THOMSON CLEAR 52 52 100 CALM 30.06S AUGUSTA-BUSH CLEAR 50 44 80 CALM 30.02R AUGUSTA-DANIEL CLEAR 61 46 57 NW5 30.03R SWAINSBORO FAIR 54 50 87 MISG 30.03R VIDALIA CLEAR 55 48 76 CALM 30.01S ALMA CLEAR 53 48 83 CALM 30.01R WAYCROSS CLEAR 57 55 92 CALM 30.01R JESUP FAIR 54 52 94 CALM 30.01S BRUNSWICK CLEAR 54 52 94 CALM 30.02R SAINT SIMONS CLEAR 57 51 80 CALM 30.01R $$ SCZ027-028-034-036>038-045-046-048>050-GAZ119-141-250300- ...LAKE AND SUPPLEMENTAL COASTAL OBSERVATIONS... STATION/POSITION TIME TEMP WIND PRES WAVE SWELL AIR SEA DIR/SP/G HT/PER HT/PER/DIR (UTC) (F) (DEG/KT/KT) (MB) (FT/S) (FT/S/D) UPR LAKE MARION NOT AVBL WINYAH BAY 0100 60 CALM 1015.0S LAKE MURRAY 0100 60 CALM / 2 1015.6S ACE BASIN NERRS 0100 56 CALM 1015.0S FORT PULASKI 0200 220/ 3/ 3 1016.2R SAPELO ISLAND NOT AVBL $$ ANZ835-935-AMZ111-154-330-350-352-354-374-450-454-472-250300- ...C-MAN AND BUOY OBSERVATIONS... STATION/POSITION TIME TEMP WIND PRES WAVE SWELL AIR SEA DIR/SP/G HT/PER HT/PER/DIR (UTC) (F) (DEG/KT/KT) (MB) (FT/S) (FT/S/D) FOLLY BEACH CMAN 0100 65 280/ 3/ 3 1016.0F BUOY 41004 0200 69 78 340/ 6/ 8 1015.4R 3/10 3/10 BUOY 41008 0200 69 75 20/ 6/ 6 1016.0R 2/11 2/ 90/11 5E ST. MARYS GA 0200 76 N/A 2/11 2/ 80/11 FRYING PAN BUOY 0200 66 73 360/ 6/ 6 1016.4R 2/11 2/ 90/11 BUOY 41025 0200 66 310/ 14/ 16 1014.5R 4/ 9 3/ 40/ 9 CAPE LOOKOUT NC 0100 67 300/ 11/ 12 1014.8R BUOY 41002 0106 72 77 10/ 6/ 10 1015.0R 5/ 9 5/ 10/ 9 BUOY 41010 0200 76 82 50/ 10/ 14 1013.7R 3/ 9 2/ 80/ 9 BUOY 41012 NOT AVBL ST AUGUSTINE FL 0200 65 320/ 8/ 10 1016.4R CAPERS NEARSHORE NOT AVBL FRIPP NEARSHORE NOT AVBL $$

USA.gov is the U.S. government's official web portal to all federal, state and local government web resources and services.